Simultaneous Nadir Overpasses (SNOs) Predictions

Prediction of SNOs between METOP-B and NOAA-19 Satellite Orbit:

Table of predicted SNOs for the next 14.0 days since TLE Epoch: 7/19/2013
Index Date (METOP-B) Time (METOP-B) Lat,Lon (METOP-B) SZA (METOP-B ) Date (NOAA-19) Time (NOAA-19) Lat,Lon (NOAA-19) SZA (NOAA-19 ) Distance(km) Time Diff (sec)
1 07/24/2013 04:59:08 -73.39, -81.14 126.35 07/24/2013 04:57:56 -73.39, -81.09 126.33 1.61 72
2 07/24/2013 05:49:47 73.41, 86.23 53.68 07/24/2013 05:48:54 73.39, 86.18 53.67 2.70 53
3 07/24/2013 06:40:30 -73.37,-106.53 126.35 07/24/2013 06:40:00 -73.37,-106.56 126.34 0.83 30
4 07/24/2013 07:31:10 73.33, 60.73 53.63 07/24/2013 07:30:58 73.37, 60.71 53.66 3.41 12
5 07/24/2013 08:21:52 -73.35,-131.92 126.36 07/24/2013 08:22:04 -73.35,-132.02 126.35 3.27 12
6
